Temp
-11 -10 -10 -11 -11 -12 -12 -12 -13 -13 -12 -11 -11 -11 -11 -10 -10 -10 -10 -10 -10 -10 -10 -10 -10 -10 -10 -10 -10 -10 -10 -10 -10 -10 -10 -10 -10 -11 -11 -11 -12 -11 -11 -11
-10 -10 -11 -12 -13 -12 -12 -12 -12 -13 -13 -12 -12 -11 -11 -10 -10 -10 -11 -10 -10 -10 -10 -10 -10 -10 -10 -10 -10 -10 -10 -10 -10 -10 -10 -10 -10 -10 -11 -11 -11 -12 -12 -12
-11 -12 -13 -12 -13 -12 -12 -12 -14 -14 -13 -12 -12 -11 -11 -11 -11 -10 -11 -11 -10 -10 -11 -10 -10 -10 -10 -10 -10 -11 -11 -11 -11 -10 -10 -10 -10 -11 -11 -11 -11 -11 -12 -12
-12 -14 -12 -12 -13 -13 -13 -13 -14 -14 -14 -12 -12 -11 -11 -11 -11 -11 -11 -11 -11 -11 -11 -11 -10 -10 -10 -10 -11 -11 -11 -11 -11 -11 -11 -11 -11 -11 -11 -11 -11 -11 -12 -12
-12 -13 -12 -12 -13 -14 -14 -14 -14 -14 -13 -13 -12 -12 -11 -12 -11 -11 -11 -11 -11 -11 -10 -10 -10 -11 -11 -11 -11 -11 -11 -11 -11 -11 -11 -11 -11 -12 -12 -11 -12 -12 -12 -12
-15 -15 -14 -14 -14 -14 -14 -14 -14 -13 -13 -13 -13 -13 -11 -11 -12 -12 -12 -11 -11 -11 -11 -11 -11 -11 -11 -11 -11 -11 -11 -11 -11 -11 -12 -12 -12 -12 -12 -12 -12 -12 -12 -12
-14 -14 -14 -14 -14 -14 -14 -14 -14 -13 -13 -12 -13 -13 -11 -12 -12 -12 -12 -12 -12 -12 -12 -12 -12 -12 -12 -12 -12 -12 -12 -12 -12 -12 -12 -12 -12 -12 -12 -12 -13 -13 -13 -13
-14 -13 -13 -13 -14 -13 -14 -14 -13 -13 -13 -13 -13 -12 -12 -12 -12 -12 -12 -12 -12 -12 -12 -12 -12 -12 -12 -12 -12 -12 -12 -12 -12 -12 -12 -12 -12 -12 -12 -12 -13 -13 -13 -13
-14 -14 -15 -14 -15 -15 -15 -14 -14 -14 -13 -13 -13 -12 -12 -13 -13 -13 -13 -13 -13 -13 -13 -13 -12 -13 -13 -13 -13 -13 -13 -13 -13 -13 -13 -13 -13 -13 -13 -13 -13 -13 -13 -13
-15 -16 -15 -15 -15 -15 -14 -15 -15 -14 -14 -13 -13 -13 -13 -13 -13 -13 -13 -13 -13 -13 -13 -13 -13 -13 -13 -13 -13 -13 -13 -13 -13 -13 -13 -13 -13 -13 -13 -13 -13 -13 -13 -13
-16 -16 -16 -16 -16 -15 -15 -15 -15 -15 -14 -14 -13 -12 -13 -13 -13 -13 -13 -13 -13 -13 -13 -13 -13 -13 -13 -13 -13 -13 -13 -14 -14 -14 -14 -14 -14 -14 -14 -14 -14 -14 -14 -14
-17 -16 -16 -17 -17 -17 -17 -16 -16 -16 -14 -14 -14 -11 -12 -13 -13 -13 -13 -12 -12 -13 -13 -13 -13 -13 -13 -13 -14 -14 -14 -14 -14 -14 -14 -14 -14 -14 -14 -14 -14 -15 -15 -15
-17 -18 -18 -18 -18 -17 -17 -16 -17 -16 -15 -14 -14 -10 -12 -12 -12 -12 -13 -13 -13 -13 -13 -13 -13 -13 -13 -14 -14 -14 -14 -14 -14 -14 -15 -15 -15 -15 -15 -15 -15 -15 -15 -16
-18 -18 -17 -16 -15 -16 -15 -16 -17 -17 -17 -14 -13 -11 -12 -12 -13 -13 -14 -14 -13 -13 -13 -13 -14 -14 -14 -14 -14 -14 -15 -15 -15 -15 -15 -16 -16 -16 -16 -16 -16 -16 -16 -16
-18 -17 -17 -17 -18 -18 -17 -18 -18 -17 -13 -15 -11 -13 -13 -13 -13 -14 -14 -14 -14 -14 -14 -14 -14 -14 -14 -15 -15 -15 -15 -15 -16 -16 -16 -17 -17 -17 -17 -17 -17 -17 -17 -17
-17 -17 -18 -18 -18 -18 -17 -17 -16 -15 -15 -14 -13 -13 -13 -13 -14 -14 -15 -14 -14 -14 -14 -14 -14 -14 -15 -15 -15 -15 -15 -16 -16 -16 -17 -17 -17 -17 -17 -18 -18 -17 -18 -18
-18 -18 -18 -18 -18 -18 -17 -14 -15 -15 -15 -14 -14 -12 -15 -14 -14 -15 -15 -14 -14 -14 -14 -14 -15 -14 -15 -15 -15 -16 -16 -17 -17 -17 -17 -18 -18 -18 -18 -18 -18 -18 -18 -18
-17 -18 -18 -18 -18 -18 -13 -15 -15 -15 -15 -15 -14 -13 -14 -15 -15 -15 -15 -15 -15 -15 -15 -15 -14 -15 -15 -16 -16 -16 -17 -17 -18 -18 -18 -18 -18 -18 -18 -18 -18 -18 -18 -18
-18 -19 -18 -18 -17 -16 -14 -14 -15 -15 -14 -15 -14 -14 -15 -15 -15 -14 -14 -15 -15 -15 -15 -15 -15 -15 -15 -16 -17 -17 -17 -18 -18 -18 -18 -18 -18 -18 -18 -18 -18 -19 -19 -19
-19 -19 -19 -18 -17 -16 -14 -15 -15 -16 -14 -15 -16 -15 -15 -16 -15 -14 -16 -16 -16 -16 -15 -15 -15 -15 -16 -16 -17 -17 -17 -18 -18 -18 -18 -18 -18 -18 -18 -18 -18 -19 -19 -19
-18 -19 -18 -17 -17 -15 -15 -15 -16 -16 -15 -15 -16 -16 -16 -15 -15 -15 -15 -16 -16 -16 -15 -15 -15 -16 -16 -17 -17 -17 -17 -18 -18 -18 -18 -18 -18 -18 -18 -18 -18 -19 -19 -19
-18 -18 -18 -18 -18 -15 -15 -16 -14 -15 -17 -16 -16 -16 -16 -16 -16 -16 -16 -16 -16 -16 -16 -16 -16 -16 -16 -17 -17 -17 -17 -18 -18 -18 -18 -18 -18 -19 -19 -19 -19 -19 -19 -19
-19 -18 -18 -18 -16 -16 -16 -16 -16 -16 -16 -17 -17 -16 -16 -17 -16 -16 -16 -16 -16 -16 -17 -16 -16 -16 -16 -17 -17 -17 -18 -18 -18 -19 -19 -19 -19 -19 -19 -19 -19 -19 -19 -20
-19 -19 -19 -18 -17 -17 -17 -17 -17 -17 -17 -16 -16 -17 -16 -16 -17 -17 -17 -16 -16 -16 -17 -17 -17 -17 -17 -17 -18 -18 -18 -19 -19 -19 -19 -19 -19 -19 -19 -19 -19 -20 -20 -20
-19 -19 -19 -19 -18 -18 -18 -17 -17 -17 -17 -17 -17 -17 -17 -17 -17 -17 -16 -16 -17 -17 -17 -17 -17 -17 -17 -18 -18 -19 -19 -19 -20 -20 -20 -20 -20 -20 -20 -20 -20 -20 -21 -21
-19 -19 -19 -18 -19 -18 -18 -18 -18 -18 -17 -17 -17 -17 -17 -17 -17 -17 -17 -17 -17 -17 -17 -17 -18 -18 -19 -19 -19 -19 -20 -20 -20 -20 -20 -20 -20 -20 -20 -21 -21 -21 -21 -22
Height
5763 5768 5773 5777 5782 5787 5789 5791 5797 5803 5807 5812 5818 5825 5827 5829 5834 5838 5842 5847 5852 5856 5857 5858 5861 5863 5865 5866 5866 5865 5866 5867 5867 5867 5866 5865 5864 5863 5861 5860 5857 5856 5855 5854
5756 5763 5767 5770 5773 5779 5782 5785 5788 5794 5799 5802 5808 5818 5821 5823 5829 5835 5836 5840 5846 5849 5850 5853 5856 5858 5860 5861 5862 5862 5861 5860 5861 5860 5859 5860 5858 5857 5855 5853 5851 5849 5847 5846
5751 5759 5758 5761 5766 5771 5776 5780 5783 5789 5794 5798 5804 5810 5816 5820 5824 5827 5830 5835 5839 5844 5845 5847 5848 5850 5852 5854 5854 5855 5855 5854 5854 5852 5852 5852 5852 5849 5848 5846 5844 5842 5839 5837
5742 5747 5753 5755 5760 5765 5770 5777 5779 5783 5788 5791 5798 5804 5809 5812 5816 5820 5825 5829 5834 5836 5837 5839 5841 5843 5845 5845 5846 5846 5847 5846 5846 5845 5844 5844 5843 5841 5838 5837 5835 5833 5831 5829
5735 5739 5744 5748 5755 5761 5769 5772 5776 5779 5783 5785 5789 5791 5801 5803 5807 5816 5821 5823 5825 5828 5830 5832 5833 5835 5836 5836 5836 5838 5839 5840 5839 5838 5837 5835 5834 5832 5829 5827 5825 5824 5822 5821
5727 5734 5741 5748 5751 5756 5763 5766 5769 5771 5775 5775 5781 5782 5794 5800 5806 5809 5813 5817 5819 5820 5822 5824 5826 5827 5828 5829 5828 5828 5829 5831 5831 5830 5829 5828 5826 5824 5821 5819 5817 5815 5813 5812
5716 5724 5732 5739 5741 5746 5751 5756 5758 5762 5764 5763 5777 5778 5785 5796 5800 5804 5806 5808 5811 5813 5814 5815 5818 5819 5820 5820 5821 5820 5821 5821 5820 5821 5821 5820 5817 5814 5812 5811 5810 5807 5805 5803
5707 5714 5720 5727 5732 5740 5743 5749 5754 5759 5763 5767 5773 5766 5774 5790 5793 5797 5798 5800 5802 5805 5808 5807 5809 5810 5812 5813 5812 5813 5812 5810 5811 5811 5810 5810 5809 5806 5804 5803 5802 5800 5797 5794
5699 5707 5715 5720 5727 5734 5737 5742 5749 5752 5755 5758 5761 5762 5768 5782 5786 5789 5792 5793 5795 5798 5800 5800 5800 5801 5801 5803 5804 5804 5803 5803 5801 5800 5800 5800 5799 5798 5796 5794 5792 5789 5787 5784
5694 5702 5707 5711 5718 5724 5731 5740 5743 5744 5747 5750 5753 5757 5762 5774 5778 5780 5782 5784 5787 5789 5791 5791 5792 5793 5794 5794 5794 5794 5794 5793 5793 5792 5791 5790 5789 5788 5786 5784 5782 5779 5776 5773
5683 5692 5698 5703 5710 5719 5723 5725 5731 5737 5741 5743 5745 5750 5757 5760 5769 5773 5773 5776 5779 5781 5780 5783 5784 5785 5785 5785 5785 5785 5784 5783 5783 5782 5780 5779 5779 5777 5775 5773 5770 5768 5765 5761
5671 5680 5687 5696 5704 5709 5714 5721 5725 5729 5733 5735 5737 5741 5745 5752 5755 5761 5766 5769 5770 5770 5771 5772 5773 5774 5775 5775 5775 5775 5775 5774 5772 5771 5769 5767 5765 5764 5762 5760 5757 5755 5752 5749
5661 5666 5674 5681 5687 5693 5699 5708 5712 5716 5720 5725 5729 5735 5741 5743 5747 5751 5754 5757 5757 5758 5760 5762 5763 5764 5764 5764 5763 5763 5762 5761 5761 5760 5758 5755 5754 5752 5749 5747 5745 5742 5738 5735
5650 5657 5664 5671 5680 5688 5691 5696 5701 5704 5707 5718 5722 5734 5730 5735 5739 5741 5743 5743 5744 5745 5746 5748 5749 5750 5750 5750 5750 5750 5749 5748 5746 5745 5744 5743 5741 5739 5736 5734 5730 5727 5725 5721
5640 5644 5653 5661 5668 5672 5679 5685 5689 5692 5706 5702 5722 5717 5726 5724 5729 5729 5727 5730 5732 5733 5734 5735 5735 5735 5736 5736 5735 5735 5735 5734 5733 5732 5730 5729 5727 5724 5722 5719 5717 5714 5711 5708
5627 5633 5643 5650 5656 5661 5665 5672 5679 5686 5689 5695 5703 5710 5713 5717 5714 5717 5718 5717 5718 5719 5719 5720 5721 5721 5722 5722 5721 5721 5720 5720 5719 5718 5717 5715 5713 5710 5708 5705 5703 5700 5697 5694
5619 5626 5633 5639 5645 5650 5652 5664 5667 5677 5680 5690 5690 5706 5702 5700 5701 5703 5704 5705 5706 5705 5706 5707 5710 5711 5709 5708 5707 5708 5708 5708 5707 5706 5704 5702 5699 5697 5694 5692 5689 5686 5684 5681
5611 5618 5622 5627 5633 5636 5656 5656 5663 5666 5672 5675 5681 5690 5688 5690 5689 5690 5693 5692 5691 5693 5698 5699 5697 5697 5696 5696 5696 5696 5696 5695 5694 5693 5691 5689 5687 5685 5684 5681 5678 5676 5673 5671
5601 5609 5612 5617 5624 5635 5643 5648 5653 5655 5664 5665 5669 5675 5674 5676 5676 5685 5681 5679 5684 5683 5683 5684 5685 5685 5685 5684 5684 5684 5684 5683 5682 5681 5680 5679 5677 5675 5672 5671 5668 5666 5664 5663
5595 5601 5605 5610 5616 5625 5638 5638 5639 5643 5652 5654 5656 5662 5663 5662 5664 5679 5671 5670 5671 5673 5674 5674 5674 5674 5675 5675 5674 5673 5672 5672 5671 5670 5669 5668 5667 5664 5662 5660 5659 5658 5656 5654
5584 5589 5593 5599 5605 5618 5624 5626 5630 5632 5648 5643 5645 5649 5651 5654 5656 5659 5660 5661 5662 5664 5665 5665 5665 5665 5665 5664 5664 5663 5662 5661 5661 5660 5658 5657 5654 5653 5651 5650 5649 5647 5644 5641
5577 5580 5584 5590 5598 5608 5614 5614 5620 5626 5628 5632 5635 5638 5641 5644 5647 5648 5649 5651 5652 5654 5654 5655 5655 5653 5653 5653 5653 5653 5652 5651 5650 5649 5647 5647 5645 5642 5640 5639 5638 5635 5632 5630
5564 5569 5575 5581 5591 5599 5601 5605 5610 5612 5616 5621 5625 5627 5630 5634 5636 5637 5638 5639 5641 5642 5644 5644 5643 5642 5641 5640 5639 5640 5640 5640 5640 5640 5638 5636 5634 5633 5631 5628 5624 5621 5620 5618
5554 5561 5564 5571 5579 5584 5587 5591 5594 5597 5601 5605 5610 5615 5619 5620 5622 5626 5628 5628 5629 5629 5630 5632 5633 5633 5630 5630 5630 5630 5630 5630 5629 5627 5626 5625 5623 5621 5618 5616 5613 5610 5606 5602
5544 5549 5557 5563 5568 5572 5576 5579 5581 5586 5590 5594 5597 5601 5603 5607 5609 5612 5613 5616 5616 5618 5618 5619 5620 5621 5620 5619 5618 5618 5618 5618 5617 5616 5614 5612 5609 5607 5604 5601 5598 5596 5592 5586
5532 5538 5542 5550 5556 5560 5565 5565 5568 5571 5575 5579 5583 5585 5589 5591 5593 5596 5599 5601 5602 5604 5605 5606 5607 5607 5606 5607 5607 5605 5605 5604 5603 5601 5599 5597 5594 5592 5589 5586 5582 5579 5576 5570
Wind_Speed
44 45 44 43 40 34 34 32 46 47 48 51 49 47 44 42 43 42 38 37 34 30 30 28 25 24 22 21 22 23 22 23 23 24 26 27 28 29 29 31 32 34 35 36
47 47 42 38 36 39 40 40 45 48 48 51 51 48 44 48 45 40 37 37 33 34 33 31 31 30 26 27 26 27 27 27 27 27 29 30 31 32 34 34 35 36 37 38
44 35 38 38 36 40 38 42 47 52 43 44 41 43 44 46 45 42 38 35 34 33 32 32 33 33 32 30 30 30 30 29 31 29 29 28 30 33 35 38 37 37 38 40
41 35 38 37 37 40 41 39 44 46 50 50 48 46 45 48 46 40 38 35 33 33 33 34 34 33 35 34 31 30 30 29 31 31 33 37 37 38 37 37 38 37 39 40
46 41 43 41 38 40 38 38 42 47 47 45 48 52 45 41 39 36 35 34 33 34 35 34 33 33 34 36 35 32 32 33 35 37 37 39 40 42 41 42 41 40 42 42
40 37 38 37 38 40 39 40 41 44 47 51 51 58 53 45 38 35 32 32 32 32 34 35 34 35 34 35 37 38 37 37 37 37 38 38 39 40 41 41 42 42 42 42
51 49 44 42 43 43 44 46 48 49 50 54 47 51 42 42 41 36 35 35 35 35 36 37 36 37 38 37 36 37 36 36 37 38 36 37 37 38 39 40 40 41 41 43
54 56 54 50 49 46 47 46 47 43 44 42 40 53 47 37 37 33 34 33 33 35 35 37 37 35 35 34 34 35 36 37 38 36 37 37 38 39 39 41 42 43 44 45
59 58 53 50 49 47 44 44 41 41 44 45 45 51 46 34 34 33 33 33 32 32 32 32 34 35 34 33 33 34 35 36 36 36 38 39 39 39 41 44 45 46 48 50
58 54 51 51 49 50 46 40 42 43 47 47 47 45 43 34 31 31 30 30 31 32 34 36 36 35 36 36 36 36 36 37 37 39 40 41 42 44 45 47 48 50 51 53
60 56 55 52 52 49 48 49 48 46 46 45 47 48 42 39 32 31 33 34 33 33 35 35 35 35 36 37 37 39 40 41 42 43 44 45 46 47 48 49 51 53 55 56
65 59 54 55 53 47 47 44 41 41 46 44 45 53 49 42 38 35 35 37 38 38 37 38 39 40 40 41 42 43 44 45 46 47 48 49 50 49 51 52 53 54 54 57
61 65 62 63 61 60 57 55 50 50 49 51 51 56 45 41 40 40 39 39 42 44 43 42 44 45 45 46 46 47 48 48 48 49 51 52 52 54 55 55 56 58 59 59
64 64 66 68 66 63 63 61 56 49 48 53 53 47 52 47 44 46 45 46 47 48 48 48 48 49 50 50 50 49 49 49 49 49 50 50 50 52 54 54 55 58 60 61
63 67 68 66 62 58 58 55 50 50 47 52 40 46 44 47 42 46 48 46 45 46 46 46 46 47 48 48 49 49 49 50 50 49 49 53 51 51 53 55 58 59 63 65
57 62 66 65 59 58 57 54 54 52 50 44 37 34 35 37 41 40 43 46 48 49 51 52 51 51 50 53 55 55 53 50 51 52 51 51 50 52 55 56 59 58 55 52
47 50 53 58 54 51 51 42 42 38 40 37 43 32 32 41 46 47 49 52 53 54 53 52 51 53 56 57 57 54 53 52 52 50 50 50 51 53 54 50 45 46 45 44
41 41 39 40 42 46 37 39 38 39 39 41 40 36 40 39 43 47 49 52 56 56 53 54 57 57 56 55 55 53 51 49 45 43 43 45 45 46 46 45 45 43 41 41
41 39 41 43 45 46 41 38 39 40 34 36 37 37 39 41 44 46 47 49 48 51 52 51 48 47 47 46 43 40 42 39 36 38 41 43 44 45 43 41 38 37 36 31
46 43 44 47 50 47 34 39 39 40 32 37 37 34 36 39 43 32 37 38 40 42 42 43 43 43 41 36 36 36 35 35 37 38 38 37 37 36 36 34 34 33 34 38
55 53 51 51 51 46 41 42 41 42 29 33 30 32 34 33 32 34 38 38 38 38 39 40 40 39 39 39 39 37 38 39 39 36 35 34 33 33 34 35 36 38 41 45
52 53 55 53 52 46 43 45 43 39 38 36 37 33 33 34 33 31 31 32 33 36 38 38 38 37 38 37 37 38 38 37 36 35 35 37 38 38 37 39 43 46 49 52
54 56 54 55 50 47 48 47 46 44 43 41 41 40 37 35 36 36 37 39 39 39 40 40 39 38 38 38 38 38 39 39 39 40 41 40 40 42 45 45 47 51 53 56
54 52 53 54 54 53 50 49 50 48 49 52 49 46 43 44 43 43 43 45 47 44 44 43 43 44 40 40 40 40 41 41 41 42 43 44 45 46 48 50 53 54 54 55
53 52 53 53 50 49 49 49 50 52 52 52 52 51 49 48 45 48 50 51 50 48 47 47 47 48 46 43 44 44 44 43 45 47 49 50 50 50 52 54 57 57 58 58
57 56 57 56 54 54 54 51 51 52 54 56 59 59 55 54 54 54 54 54 53 51 51 51 50 48 45 46 47 47 48 49 52 52 52 54 55 57 60 59 60 61 63 61
Wind_Direction
232 233 232 231 237 246 228 226 213 215 218 220 221 219 223 227 227 230 228 229 229 231 234 239 242 245 247 252 256 262 267 270 277 282 284 284 285 286 285 284 282 284 284 286
232 232 233 227 229 235 237 225 218 212 219 222 221 221 221 229 230 230 233 235 235 234 235 239 243 244 246 252 258 262 264 268 272 275 278 283 285 287 288 285 283 283 286 287
233 234 229 228 225 231 229 223 220 213 218 226 227 222 223 230 233 233 235 238 238 240 241 245 249 253 252 254 256 261 265 268 271 272 280 283 285 285 286 286 285 286 286 286
225 218 227 224 223 222 223 226 215 217 220 226 227 230 226 229 233 233 236 239 241 242 244 246 248 255 260 259 257 257 258 260 267 268 273 279 280 280 278 282 282 282 283 283
226 222 222 220 214 219 222 224 222 222 226 221 221 231 222 227 231 236 235 234 237 241 245 247 251 251 255 259 260 259 263 262 265 272 274 277 278 277 277 277 280 281 281 283
217 218 223 218 214 214 219 224 224 223 223 227 225 231 224 227 236 238 237 236 236 237 243 245 245 248 249 253 260 264 263 263 268 270 271 276 278 277 278 280 281 283 283 283
217 218 221 218 214 213 217 218 223 223 221 225 221 230 229 224 228 234 237 236 237 239 243 247 248 250 254 255 256 262 267 269 271 271 274 276 274 276 278 280 281 282 284 285
220 222 217 218 217 221 218 222 230 235 232 235 230 232 233 223 226 230 236 242 242 245 249 253 255 257 256 256 258 261 266 269 271 272 272 272 274 276 279 280 281 282 283 283
221 222 221 220 218 217 217 222 229 233 237 236 230 232 240 226 232 236 236 236 241 245 250 254 257 258 260 261 263 264 265 267 270 271 270 273 275 275 276 277 278 280 281 282
226 224 221 220 219 220 220 224 229 231 239 243 242 241 245 242 242 242 244 249 249 254 256 257 257 259 261 265 267 268 270 271 270 270 271 273 275 275 276 277 279 279 280 281
222 223 225 222 222 222 222 224 228 232 238 245 250 248 248 255 249 248 254 259 259 257 259 262 263 264 265 267 269 271 271 272 273 275 275 275 276 276 277 278 278 279 279 280
223 226 224 228 225 223 225 227 235 238 240 246 252 242 250 255 262 260 257 259 263 264 264 263 263 266 267 267 266 268 270 271 271 274 276 277 278 279 280 279 279 280 281 282
229 228 229 225 225 225 226 226 227 233 237 242 248 237 249 258 263 267 270 269 263 259 260 264 266 267 268 270 271 271 272 273 274 275 275 276 278 279 280 282 283 283 282 283
231 232 236 241 244 237 237 232 229 234 239 245 248 251 261 261 261 265 268 267 267 268 270 272 274 276 276 275 276 276 277 277 277 278 279 279 279 281 284 282 280 280 281 282
233 238 237 236 235 237 236 232 234 239 250 246 243 246 248 255 255 258 261 265 269 272 273 273 272 274 277 279 278 279 280 279 279 281 282 282 285 283 281 280 281 282 284 287
226 233 236 237 238 238 239 239 241 245 244 244 238 237 251 253 259 264 266 268 269 269 270 271 273 275 278 280 280 280 280 281 283 283 284 284 283 281 279 280 282 285 287 288
218 221 227 232 232 232 233 231 231 235 243 249 249 254 262 253 252 255 260 262 264 267 268 270 276 280 279 278 278 278 279 280 281 283 283 281 280 279 279 281 284 286 288 290
210 214 219 224 228 230 223 232 241 246 246 251 254 255 255 256 258 258 259 260 262 264 269 273 272 273 277 279 280 278 278 279 278 277 276 276 277 277 277 282 285 288 291 290
208 212 218 221 226 230 236 244 243 251 249 257 256 251 251 252 253 261 264 264 265 263 262 266 271 274 275 277 278 278 276 277 276 276 278 279 279 279 280 283 287 290 286 285
223 225 225 228 233 235 236 241 248 249 253 257 260 254 251 251 253 261 263 260 262 263 267 271 272 274 277 280 276 273 273 274 274 275 276 278 280 283 285 285 285 285 290 294
217 219 226 233 235 237 237 239 239 249 264 251 258 257 259 264 266 255 259 263 266 268 268 269 271 273 274 272 274 275 275 274 274 272 272 274 276 279 280 282 282 283 285 286
229 231 231 234 239 242 237 242 246 246 247 251 254 256 257 258 262 259 261 262 265 265 263 264 265 267 269 272 272 272 271 268 267 267 270 275 276 275 275 277 281 283 284 285
227 233 237 239 244 248 253 252 248 249 251 251 252 253 256 256 257 255 256 259 262 265 268 266 262 261 261 260 261 263 265 266 268 273 274 273 275 280 281 281 280 282 285 287
231 232 234 238 241 242 246 247 245 242 244 248 253 254 254 257 261 262 262 260 262 263 264 264 264 265 261 264 265 265 265 271 276 275 276 278 281 281 283 285 284 283 284 286
237 238 241 241 242 244 247 250 251 252 254 255 255 256 260 258 263 265 266 267 265 264 262 261 263 267 268 266 267 267 269 275 278 278 279 280 283 285 286 286 286 286 286 288
238 241 244 247 247 248 249 250 252 254 256 257 259 259 259 261 263 263 263 266 267 265 264 261 260 264 267 267 267 268 271 277 280 279 279 283 286 289 289 289 286 286 287 289